Location: Newark
(42.7133°N, 87.7910°W)
Time: 23:57:08
(UTC+00:00)

Transit 4A - Pass Details

Date: 23 September 2019
Orbit: 866 x 978 km, 66.8° (Epoch: 14 October)

Event Time Altitude Azimuth Distance (km) Brightness Sun altitude
Rises 00:26:41 0° 334° (NNW) 3,606 11.5 -7.8°
Reaches altitude 10° 00:29:36 10° 345° (NNW) 2,639 10.6 -8.3°
Maximum altitude 00:34:56 30° 46° (NE) 1,566 8.8 -9.3°
Enters shadow 00:39:31 13° 103° (ESE) 2,375 9.4 -10.1°
